カタログに戻る

STARLINK-32403

運用中通信VLEO
NORAD 61629·PAYLOAD·🇺🇸 United States

打ち上げ Oct 23, 2024 から Cape Canaveral Space Force Station

Loading…

次のパス (今後24時間)

TLE

最新Source: CelesTrak SupGP

元期: Sep 14, 2026, 21:20 UTC

1 61629C 24191J   26257.88937500 -.00024478  00000+0 -88661-3 0  2578
2 61629  42.9994 165.9816 0001212 258.7972  52.5323 15.27589478    12

AllMySatでSTARLINK-32403をリアルタイム追跡

Download on the App Store